Погода Котельниково

Погода Котельниково : погода сейчас, прогноз погоды и архив. Всё, что Вы хотите узнать о погоде Котельниково!

Поиск расширенной информации на нашем сайте:

Другие новости

Новости СМИ2

Главная страница сайта

Новости сайта

03.07.2017

Напоминаем, что на нашем специализированном сайте Метеоцентр.Азия вы можете получить высокодетализированные автоматические прогнозы погоды по пунктам России, СНГ и мира в авиационном формате (включающие направление и скорость ветра, видимость, явления погоды, количество и форму облачности, нижнюю и верхнюю границу облачности).


Погода Котельниково - сегодня

Время (UTC), дата Ветер
(°,м/с) 
Видим.   Явления Облачность Т
(°С)
Тd
(°С)
f(%) Тe
(°С)
Pmin
(гПа)
dP
(гПа)
Po
(мм)
O2
(г/м3)
Тmin Tmax R s Состояние
почвы
21 11.11.18 080 (В) 7-11{13}  10 км    10/10 600 м 
[Sc]
-1.9 -11.5 48 -6  1038.6  0.4  774  315           
00 12.11.18 080 (В) 8-13{13}  10 км    10/10 600 м 
[Sc]
-2.5 -13.1 44 -7  1038.9  0.3  774  316           
03 12.11.18 080 (В) 9-15  10 км    10/10 600 м 
[Sc]
-3.7 -13.4 47 -9  1039.5  0.5  775  318  -3.7         
06 12.11.18 080 (В) 9-13{15}  10 км    10/10 600 м 
[Sc]
-4.9 -11.5 60 -11  1040.1  0.6  775  319  -4.9         
09 12.11.18 080 (В) 9-13{16}  4000 м  слаб. ливневой снег  н/о 
-5.6 -10.4 69 -11  1040.3  0.1  775  320           
12 12.11.18 070 (В) 8-12{14}  4000 м  слаб. снег{ливн. осадки}  10/10 300 м 
[Frnb|Ns]
-5.2 -8.5 78 -11  1039.8  -0.5  775  319           
15 12.11.18 080 (В) 10 км  {снег}  10/10 600 м 
[Sc]
-3.4 -12.5 49 -8  1040  0.2  775  317    -3.4     
18 12.11.18 080 (В) 7-11{14}  10 км    10/10 600 м 
[Sc]
-3.7 -14.8 42 -8  1039.7  -0.3  775  318           
21 12.11.18 080 (В) 7-12{14}  10 км    10/10 600 м 
[]
-4 -13.8 46 -9  1038.9  -0.8  774  318           
00 13.11.18 070 (В) 7-11{14}  10 км    10/10 600 м 
[Sc]
-5.2 -9 75 -10  1038.2  -0.8  774  319           
03 13.11.18 070 (В) 4000 м  слаб. снег  10/10 300 м 
[Frnb|Ns]
-5.4 -7.5 85 -11  1037.6  -0.6  773  319  -5.6       
06 13.11.18 080 (В) 9-15{15}  4000 м  слаб. снег  10/10 300 м 
[Frnb|Ns]
-4.2 -8.5 72 -10  1037.3  -0.3  773  317           
12 13.11.18 080 (В) 8-13  10 км    10/10 600 м 
[Sc]
-1.1 -9 55 -6  1037.7  0.2  774  314        мокрый или
старый снег
50-90% 
15 13.11.18 080 (В) 8-12  10 км    10/10 600 м 
[Sc]
-0.9 -13 39 -5  1038.1  0.4  774  314    -0.8  0.4     
18 13.11.18 080 (В) 5{12}  10 км    10/10 600 м 
[Sc]
-2.5 -13.6 42 -6  1038.2  0.1  774  316           
21 13.11.18 090 (В) 10 км    10/10 600 м 
[Sc]
-4.2 -13.7 48 -8  1037.7  -0.5  773  318           
00 14.11.18 080 (В) 6{10}  н/о    н/о 
-4.5 -12 56 -9  1036.9  -0.5  773  318           
03 14.11.18 070 (В) 10 км    10/10 600 м 
[Sc]
-7.5 -12.8 66 -12  1036.1  -0.8  772  321  -7.5      равномерный
сухой снег
100% 
06 14.11.18 090 (В) 10 км    3/0 средняя 
[Ac trans]
-5.9 -10.5 70 -10  1036  772  319  -7.9         
09 14.11.18 100 (В) 7-10{10}  10 км    4/4 600 м 
[Sc]
-0.4 -7.3 60 -4  1034.1  -1.7  771  312           
12 14.11.18 090 (В) 6{11}  10 км    8/8 600 м 
[Sc]
+1.9 -8.5 46 -1  1032.7  -1.4  770  309           
18 14.11.18 100 (В) 6-10{10}  10 км    10/10 600 м 
[Sc]
+0.5 -9.5 47 -3  1031.9  -0.6  769  310           
21 14.11.18 100 (В) 6-10{11}  10 км    10/10 600 м 
[Sc]
-1.6 -10.2 52 -5  1031.8  -0.2  769  313           
00 15.11.18 090 (В) 5{10}  10 км    10/10 600 м 
[Sc]
-4.7 -10.3 65 -9  1030.8  -1  768  316           
03 15.11.18 070 (В) 10 км    ясно 
-6.6 -10.7 73 -9  1030.6  -0.3  768  318  -6.6         
Время (UTC), дата Ветер
(°,м/с) 
Видим.   Явления Облачность Т
(°С)
Тd
(°С)
f(%) Тe
(°С)
Pmin
(гПа)
dP
(гПа)
Po
(мм)
O2
(г/м3)
Тmin Tmax R s Состояние
почвы

Для получения пояснительной информации подведите курсор к названию столбца.

ПОГОДА Котельниково - архив

Всё, что Вы хотите узнать о погоде Котельниково - удобно и подробно!

Выберите нужную дату (начиная с 1 января 2015* года) и нажмите кнопку "Найти".
Будут отображены архивные сводки погоды по пункту Котельниково, начиная с указанной даты.


Отображать данные в формате CSV (для использования в таблицах Excel)


Внимание! Наш архив погоды предназначен исключительно для личного некоммерческого использования в познавательных целях. Если Вам необходимы официальные справки о состоянии погоды (для производственных, юридических, коммерческих и т.п. целей), обращайтесь в органы Росгидромета.

*Примечание: данная дата относится к архиву по метеостанциям СССР (Россия, СНГ, Балтия).
Архив по метеостанциям Зарубежной Европы и Азии (кроме Китая) хранится 10 дней, по другим регионам земного шара (Китай, Африка, Америка, Австралия, Океания) - 1 день.

Котельниково - район местоположения метеостанции


Название, широта, долгота, высота метеостанции:
Котельниково 47.6°ш. 43.2°д. 49 м над ур. моря [Российская Федерация]

Дополнительная информация

В oтличие oт бoльшинства пoгoдных сайтoв мы публикуем пoдрoбную метеoинфoрмацию в детальнoм прoфессиoнальнoм фoрмате.

Характеристики температуры и влажнoсти вoздуха измеряются на высoте 2 м в тени вдали oт зданий и деревьев.
Скoрoсть ветра измеряется на высoте 10 м (на урoвне рoста челoвека скoрoсть ветра ниже в 1.5-2 раза). Если метеoстанция нахoдится в гoрoде или в лесу, тo скoрoсть ветра занижена на 2-4 м/с пo сравнению с oткрытым местoм. Скoрoсть ветра над акватoриями крупных рек и oзёр, а также на вершинах хoлмoв на 2-5 м/с выше, чем в oбычных услoвиях.
Атмoсфернoе давление в разных тoчках местнoсти мoжет значительнo oтличаться oт давления на метеoстанции, в зависимoсти oт услoвий рельефа (при пoдъёме на 10 м давление пoнижается примернo на 1 мм рт.ст.).